Location: ?????
(37.7324°N, 23.9257°E)
Time: 06:48:35
(UTC+00:00)

FENGYUN 3A - Pass Details

Date: 29 November 2020
Orbit: 823 x 837 km, 98.4° (Epoch: 17 January)

Event Time Altitude Azimuth Distance (km) Brightness Sun altitude
Rises 03:12:39 0° 8° (N) 3,385 6.8 -24.5°
Reaches altitude 10° 03:15:03 10° 6° (N) 2,445 6.1 -24.1°
Maximum altitude 03:20:23 62° 287° (WNW) 930 3.6 -23.0°
Drops below altitude 10° 03:25:40 10° 207° (SSW) 2,420 5.9 -22.0°
Sets 03:28:01 0° 204° (SSW) 3,348 6.7 -21.5°
